EST,Max TemperatureF,Mean TemperatureF,Min TemperatureF,Max Dew PointF,MeanDew PointF,Min DewpointF,Max Humidity, Mean Humidity, Min Humidity, Max Sea Level PressureIn, Mean Sea Level PressureIn, Min Sea Level PressureIn, Max VisibilityMiles, Mean VisibilityMiles, Min VisibilityMiles, Max Wind SpeedMPH, Mean Wind SpeedMPH, Max Gust SpeedMPH,PrecipitationIn, CloudCover, Events, WindDirDegrees
2013-1-1,30,20,10,21,14,9,92,72,59,30.13,30.07,30.00,10,10,10,10,6,,0.00,5,,305
2013-1-2,24,15,6,19,14,7,100,83,74,30.19,30.13,30.06,10,10,10,9,4,,0.00,5,,231
2013-1-3,30,22,14,27,18,7,93,79,63,30.16,30.12,30.07,10,8,4,17,8,23,0.00,7,,233
2013-1-4,30,26,21,25,20,16,86,79,69,30.18,30.12,30.06,10,10,7,25,16,30,0.00,2,,241
2013-1-5,35,27,19,32,23,18,100,84,70,30.27,30.17,30.04,10,7,2,14,7,20,0.00,2,Snow,214
2013-1-6,37,35,33,34,31,27,93,84,75,30.25,30.01,29.91,10,8,2,16,11,22,0.00,8,Snow,245
2013-1-7,37,32,28,28,26,23,93,77,65,30.39,30.28,30.16,10,10,7,18,6,24,0.00,3,,219
2013-1-8,37,30,24,30,26,21,93,82,70,30.25,30.20,30.16,10,7,4,12,6,,0.00,0,,197
2013-1-9,46,38,28,36,31,25,93,72,49,30.45,30.18,30.05,10,10,7,20,9,28,0.00,1,Rain,234
2013-1-10,39,32,26,36,30,25,100,85,65,30.56,30.44,30.16,10,10,3,13,3,18,0.00,2,Rain,102
2013-1-11,60,48,35,54,45,36,100,90,72,30.14,29.89,29.76,10,8,1,20,9,28,0.00,5,Rain-Snow,173
2013-1-12,60,53,46,54,49,45,100,86,72,29.94,29.89,29.82,10,8,0,16,7,22,0.00,1,Fog-Rain,209
2013-1-13,53,44,35,54,41,32,100,92,87,30.03,29.85,29.71,10,6,2,23,9,29,0.00,8,Rain,316
2013-1-14,33,28,21,30,21,18,100,77,69,30.42,30.31,30.04,10,10,10,22,12,25,0.00,7,,286
2013-1-15,30,24,17,23,20,16,100,80,60,30.41,30.32,30.13,10,9,5,8,1,,0.00,1,,120
2013-1-16,37,30,24,28,24,21,93,75,52,30.11,29.93,29.83,10,10,7,20,5,24,0.00,4,,243
2013-1-17,41,31,21,30,23,7,100,70,50,30.30,30.13,29.97,10,9,4,20,8,28,0.00,3,,290
2013-1-18,37,28,19,25,17,9,80,59,52,30.43,30.26,30.00,10,10,10,21,8,33,0.00,3,,230
2013-1-19,48,42,37,36,30,25,76,60,50,29.99,29.85,29.61,10,10,10,26,18,38,0.00,1,,228
2013-1-20,42,30,19,36,13,3,76,57,45,30.17,30.01,29.59,10,10,10,38,21,52,0.00,6,Snow,283
2013-1-21,21,14,8,12,9,1,86,70,54,30.13,30.02,29.94,10,9,0,22,11,28,0.00,7,Snow,266
2013-1-22,12,6,1,9,-1,-8,85,70,56,30.28,30.22,30.10,10,9,2,15,9,20,0.00,5,Snow,274
2013-1-23,19,12,6,16,7,1,93,74,54,30.27,30.16,30.06,10,8,0,16,9,22,0.00,7,Snow,239
2013-1-24,21,14,8,16,8,1,100,75,42,30.56,30.42,30.08,10,10,2,10,5,,0.00,2,Snow,325
2013-1-25,21,18,15,19,14,5,100,80,58,30.47,30.17,30.00,10,6,0,12,3,18,0.00,8,Snow,159
2013-1-26,26,22,17,21,19,16,100,83,64,30.43,30.24,30.03,10,9,4,13,4,16,0.00,7,Snow,292
2013-1-27,32,21,10,28,19,9,100,86,64,30.46,30.37,30.11,10,8,1,14,3,20,0.00,3,Snow,143
2013-1-28,48,40,32,48,41,28,100,96,87,30.13,29.95,29.86,7,3,0,18,9,26,0.00,8,Fog-Rain-Snow,221
2013-1-29,60,48,37,55,48,37,100,95,82,30.01,29.78,29.49,10,4,0,15,7,29,0.00,8,Fog-Rain,175
2013-1-30,62,48,35,57,49,27,100,89,70,29.46,29.26,29.12,10,9,2,31,14,45,0.00,6,Rain,215
2013-1-31,35,27,19,27,17,10,86,71,59,29.87,29.64,29.28,10,8,0,29,23,41,0.00,8,Snow,263